Weather History for KGWR - June, 2013

Change the Weather History Date:

Monday, June 17, 2013

  Actual Average (KP67) Record (KP67)
Temperature  
Mean Temperature 67 °F -  
Max Temperature 77 °F 77 °F 81 °F (1998)
Min Temperature 57 °F 56 °F 59 °F (1997)
Cooling Degree Days 2    
Growing Degree Days 17 (Base 50)    
Moisture  
Dew Point 54 °F    
Average Humidity 63    
Maximum Humidity 88    
Minimum Humidity 44    
Precipitation  
Precipitation 0.00 in - - ()
Sea Level Pressure  
Sea Level Pressure 30.00 in    
Wind  
Wind Speed 11 mph (NW)    
Max Wind Speed 17 mph    
Max Gust Speed 23 mph    
Visibility 9 miles    
Events      
Averages and records for this station are not official NWS values.
T = Trace of Precipitation, MM = Missing Value Source: NWS Daily Summary

Daily Weather History Graph

Daily Weather History Graph

Search for Another Location

Airport or City:

Trip Planner

Search our weather history database for the weather conditions in past years. The results will help you decide how hot, cold, wet, or windy it might be!

Date:

Astronomy

Jun. 17, 2013 Rise Set
Actual Time 5:38 AM CDT 9:24 PM CDT
Civil Twilight 4:59 AM CDT 10:03 PM CDT
Nautical Twilight 4:06 AM CDT 10:56 PM CDT
Astronomical Twilight 2:52 AM CDT 12:10 AM CDT
Moon 2:48 PM CDT (6/17) 1:33 AM CDT (6/17)
Length of Visible Light 17h 04m
Length of Day
15h 46m
First Quarter, 60% of the Moon is Illuminated
Jun 17
First Quarter
Jun 23
Full
Jun 29
Last Quarter
Jul 8
New
Jul 15
First Quarter

Hourly Weather History & Observations

Time (CDT) Temp. Dew Point Humidity Pressure Visibility Wind Dir Wind Speed Gust Speed Precip Events Conditions
12:15 AM 64.4 °F 50.0 °F 59% 29.95 in 10.0 mi West 8.1 mph - 0.00 in   Clear
12:35 AM 64.4 °F 51.8 °F 64% 29.95 in 10.0 mi West 9.2 mph - 0.00 in   Clear
12:55 AM 62.6 °F 51.8 °F 68% 29.95 in 10.0 mi West 8.1 mph - 0.00 in   Clear
1:15 AM 62.6 °F 51.8 °F 68% 29.95 in 10.0 mi West 8.1 mph - 0.00 in   Clear
1:35 AM 62.6 °F 51.8 °F 68% 29.94 in 10.0 mi West 10.4 mph - 0.00 in   Clear
1:55 AM 62.6 °F 51.8 °F 68% 29.95 in 10.0 mi West 9.2 mph - 0.00 in   Clear
2:15 AM 62.6 °F 51.8 °F 68% 29.95 in 10.0 mi West 10.4 mph - 0.00 in   Clear
2:35 AM 62.6 °F 51.8 °F 68% 29.95 in 10.0 mi West 11.5 mph - 0.00 in   Clear
2:55 AM 62.6 °F 53.6 °F 72% 29.95 in 10.0 mi West 11.5 mph - 0.00 in   Clear
3:15 AM 62.6 °F 51.8 °F 68% 29.95 in 10.0 mi WNW 11.5 mph - 0.00 in   Clear
3:35 AM 62.6 °F 51.8 °F 68% 29.95 in 10.0 mi West 12.7 mph - 0.00 in   Clear
3:55 AM 62.6 °F 51.8 °F 68% 29.95 in 10.0 mi West 11.5 mph - 0.00 in   Clear
4:15 AM 60.8 °F 53.6 °F 77% 29.95 in 10.0 mi West 11.5 mph - 0.00 in   Clear
4:35 AM 60.8 °F 53.6 °F 77% 29.95 in 10.0 mi West 10.4 mph - 0.00 in   Clear
4:55 AM 59.0 °F 53.6 °F 82% 29.95 in 10.0 mi West 9.2 mph - 0.00 in   Clear
5:15 AM 60.8 °F 53.6 °F 77% 29.95 in 10.0 mi West 10.4 mph - 0.00 in   Clear
5:35 AM 59.0 °F 53.6 °F 82% 29.96 in 10.0 mi West 9.2 mph - 0.00 in   Clear
5:55 AM 57.2 °F 53.6 °F 88% 29.96 in 10.0 mi West 9.2 mph - 0.00 in   Clear
6:15 AM 57.2 °F 53.6 °F 88% 29.97 in 10.0 mi West 8.1 mph - 0.00 in   Clear
6:35 AM 59.0 °F 55.4 °F 88% 29.97 in 10.0 mi West 9.2 mph - 0.00 in   Clear
6:55 AM 60.8 °F 55.4 °F 82% 29.97 in 10.0 mi West 11.5 mph - 0.00 in   Clear
7:15 AM 62.6 °F 55.4 °F 77% 29.98 in 10.0 mi West 11.5 mph - 0.00 in   Clear
7:35 AM 62.6 °F 57.2 °F 82% 29.98 in 7.0 mi WNW 13.8 mph - 0.00 in   Clear
7:55 AM 62.6 °F 57.2 °F 82% 29.98 in 8.0 mi West 13.8 mph 19.6 mph 0.00 in   Clear
8:15 AM 64.4 °F 59.0 °F 83% 29.98 in 5.0 mi WNW 15.0 mph 18.4 mph 0.00 in   Clear
8:35 AM 64.4 °F 59.0 °F 83% 29.99 in 8.0 mi NW 15.0 mph - 0.00 in   Scattered Clouds
8:55 AM 66.2 °F 59.0 °F 78% 29.99 in 9.0 mi WNW 17.3 mph - 0.00 in   Partly Cloudy
9:15 AM 66.2 °F 59.0 °F 78% 30.00 in 5.0 mi NW 17.3 mph - 0.00 in   Clear
9:35 AM 68.0 °F 57.2 °F 68% 30.01 in 8.0 mi NNW 16.1 mph - 0.00 in   Partly Cloudy
9:55 AM 68.0 °F 59.0 °F 73% 30.01 in 8.0 mi NW 16.1 mph 20.7 mph 0.00 in   Mostly Cloudy
10:15 AM 66.2 °F 57.2 °F 73% 30.02 in 5.0 mi NNW 13.8 mph - 0.00 in   Overcast
10:35 AM 68.0 °F 57.2 °F 68% 30.02 in 9.0 mi NNW 11.5 mph 18.4 mph 0.00 in   Overcast
10:55 AM 69.8 °F 57.2 °F 64% 30.02 in 8.0 mi NW 15.0 mph - 0.00 in   Mostly Cloudy
11:15 AM 71.6 °F 55.4 °F 57% 30.02 in 7.0 mi NNW 13.8 mph - 0.00 in   Partly Cloudy
11:35 AM 71.6 °F 55.4 °F 57% 30.02 in 10.0 mi NNW 11.5 mph - 0.00 in   Scattered Clouds
11:55 AM 71.6 °F 55.4 °F 57% 30.03 in 9.0 mi NW 15.0 mph - 0.00 in   Mostly Cloudy
12:15 PM 71.6 °F 55.4 °F 57% 30.03 in 10.0 mi NNW 12.7 mph 19.6 mph 0.00 in   Scattered Clouds
12:35 PM 73.4 °F 55.4 °F 53% 30.03 in 10.0 mi WNW 12.7 mph 21.9 mph 0.00 in   Scattered Clouds
12:55 PM 73.4 °F 53.6 °F 50% 30.03 in 10.0 mi NW 15.0 mph - 0.00 in   Scattered Clouds
1:15 PM 73.4 °F 55.4 °F 53% 30.03 in 8.0 mi NNW 13.8 mph 19.6 mph 0.00 in   Scattered Clouds
1:35 PM 73.4 °F 53.6 °F 50% 30.02 in 10.0 mi NNW 17.3 mph - 0.00 in   Mostly Cloudy
1:55 PM 73.4 °F 55.4 °F 53% 30.03 in 5.0 mi NNW 17.3 mph 20.7 mph 0.00 in   Mostly Cloudy
2:15 PM 73.4 °F 53.6 °F 50% 30.03 in 7.0 mi NNW 15.0 mph 23.0 mph 0.00 in   Mostly Cloudy
2:35 PM 73.4 °F 53.6 °F 50% 30.03 in 10.0 mi NNW 12.7 mph 19.6 mph 0.00 in   Mostly Cloudy
2:55 PM 75.2 °F 53.6 °F 47% 30.02 in 5.0 mi NW 12.7 mph - 0.00 in   Scattered Clouds
3:15 PM 75.2 °F 53.6 °F 47% 30.02 in 10.0 mi NW 11.5 mph - 0.00 in   Scattered Clouds
3:35 PM 75.2 °F 53.6 °F 47% 30.02 in 10.0 mi North 15.0 mph - 0.00 in   Scattered Clouds
3:55 PM 77.0 °F 53.6 °F 44% 30.02 in 10.0 mi WNW 15.0 mph - 0.00 in   Scattered Clouds
4:15 PM 75.2 °F 53.6 °F 47% 30.01 in 10.0 mi NNW 13.8 mph 19.6 mph 0.00 in   Scattered Clouds
4:35 PM 77.0 °F 53.6 °F 44% 30.01 in 7.0 mi NNW 13.8 mph - 0.00 in   Partly Cloudy
4:55 PM 75.2 °F 51.8 °F 44% 30.01 in 5.0 mi NW 11.5 mph 16.1 mph 0.00 in   Partly Cloudy
5:15 PM 75.2 °F 51.8 °F 44% 30.01 in 8.0 mi WNW 10.4 mph 19.6 mph 0.00 in   Scattered Clouds
5:35 PM 75.2 °F 53.6 °F 47% 30.01 in 8.0 mi NNW 13.8 mph - 0.00 in   Mostly Cloudy
5:55 PM 75.2 °F 53.6 °F 47% 30.01 in 10.0 mi North 13.8 mph - 0.00 in   Mostly Cloudy
6:15 PM 75.2 °F 53.6 °F 47% 30.01 in 10.0 mi NNW 15.0 mph 18.4 mph 0.00 in   Mostly Cloudy
6:35 PM 75.2 °F 51.8 °F 44% 30.01 in 10.0 mi North 11.5 mph - 0.00 in   Scattered Clouds
6:55 PM 75.2 °F 51.8 °F 44% 30.01 in 10.0 mi North 12.7 mph - 0.00 in   Scattered Clouds
7:15 PM 75.2 °F 53.6 °F 47% 30.01 in 10.0 mi North 10.4 mph - 0.00 in   Partly Cloudy
7:35 PM 75.2 °F 51.8 °F 44% 30.01 in 10.0 mi North 11.5 mph - 0.00 in   Partly Cloudy
7:55 PM 73.4 °F 53.6 °F 50% 30.02 in 10.0 mi NNE 15.0 mph - 0.00 in   Scattered Clouds
8:15 PM 73.4 °F 53.6 °F 50% 30.02 in 10.0 mi NNE 10.4 mph - 0.00 in   Mostly Cloudy
8:35 PM 71.6 °F 53.6 °F 53% 30.02 in 10.0 mi NE 9.2 mph - 0.00 in   Overcast
8:55 PM 71.6 °F 53.6 °F 53% 30.02 in 10.0 mi NE 9.2 mph - 0.00 in   Overcast
9:15 PM 71.6 °F 53.6 °F 53% 30.03 in 10.0 mi NNE 10.4 mph - 0.00 in   Scattered Clouds
9:35 PM 69.8 °F 55.4 °F 60% 30.04 in 10.0 mi NNE 8.1 mph - 0.00 in   Mostly Cloudy
9:55 PM 66.2 °F 57.2 °F 73% 30.05 in 8.0 mi NNE 6.9 mph - 0.00 in   Mostly Cloudy
10:15 PM 66.2 °F 59.0 °F 78% 30.05 in 10.0 mi North 3.5 mph - 0.00 in   Scattered Clouds
10:35 PM 66.2 °F 55.4 °F 68% 30.05 in 10.0 mi NNE 8.1 mph - 0.00 in   Partly Cloudy
10:55 PM 64.4 °F 55.4 °F 73% 30.06 in 10.0 mi North 6.9 mph - 0.00 in   Partly Cloudy
11:15 PM 64.4 °F 57.2 °F 77% 30.06 in 10.0 mi North 6.9 mph - 0.00 in   Partly Cloudy
11:35 PM 64.4 °F 53.6 °F 68% 30.06 in 10.0 mi NNW 8.1 mph - 0.00 in   Scattered Clouds
11:55 PM 64.4 °F 53.6 °F 68% 30.06 in 10.0 mi North 6.9 mph - 0.00 in   Scattered Clouds